GPS BIIF-7 (PRN 09)

Last updated on Tue Jul 01 2025 00:03:13 GMT+0000 (Coordinated Universal Time)

1 40105U 14045A 25181.05625097 -.00000015 00000+0 00000+0 0 9990 2 40105 55.1252 102.5119 0029908 115.8786 244.4330 2.00562051 79013
UTC large
Height (km)
Speed (km/s)
/
Latitude / Longitude
Inclination (degrees)
Orbital Period (minutes)
Azimuth
Elevation
Range (km)
Doppler Factor

Next 0 passes for location: London (51.5072 / 0.1276)

Sorry there are no passes over London.